Participated 4 times
Between 1961 and 1965
Frans Aerenhouts, Belgium
Tour de France 2026 starts from Barcelona, Spain in

Stats and Facts from
Tour de France.

2026   2025   2024   2023  2022  2021  2020  2019   2018  2017   2016   2015  2014  2013   2012   2011  2010   2009   2008   2007   2006   2005   2004   2003   2002   2001   2000   1999   1998   1997  1996   1995   1994   1993   1992  1991   1990   1989   1988   1987   1986   1985   1984   1983  1982  1981   1980   1979  1978  1977   1976  1975  1974  1973   1972   1971   1970  1969   1968   1967   1966   1965  1964  1963   1962   1961   1960   1959   1958   1957  1956   1955   1954   1953   1952  1951  1950  1949   1948  1947  1939   1938   1937   1936   1935   1934   1933  1932   1931   1930  1929   1928   1927   1926  1925  1924  1923   1922   1921   1920   1919  1914   1913   1912   1911   1910  1909   1908   1907   1906  1905  1904   1903 

Tourstats
Sitemap

After stage 21 - 2025:
 16451 starters.
  5463 different riders.
  689 teams.
  2398 stages.
  470 restdays.
  466506.50 km.
  5925 abandoned riders.

Click map for 2016 route.
Facts from Tour de France 2016
  |   Stages.  |   Stage winners.  |   Days in jerseys.  |   Teams.  |   All riders.  |   All riders by age.  |   All riders from.  |  

  |   Rookies.  |   Withdrawls.  |   Average speed.  |   GC.  |   Polka  |   Green  |   White  |   Summits. (In tour)  |   Miscellaneous.  |  

Stage 11 on July 13th. 2016
Pick a stage:  1  2  3  4  5  6  7  8  9  10  11  12  13  14  15  16  17  18  19  20  21  

After stage 11:    Chris Froome    Thibaut Pinot    Peter Sagan    Adam Yates  
  CarcassonneMontpellier | Dist: 164.00km. | Winner: Peter Sagan

Podium
4  Côte de Minerve Arthur Vichotafter38.00 km.

4  Côte de Villespassans Arthur Vichotafter57.00 km.


Average speed for all riders in stage:  47,086 km./hr.

1
 Peter Sagan  Tinkoff03h 26' 23"=47,678  km/h

2
 Chris Froome  Sky Procycling03h 26' 23"=47,678  km/h

3
 Maciej Bodnar  Tinkoff03h 26' 23"=47,678  km/h

4  Alexander Kristoff  Katusha03h 26' 29"+  00:00:06 =47,655  km/h

5  Christophe Laporte  Cofidis – Solutions Crédits03h 26' 29"+  00:00:06 =47,655  km/h

6  Jasper Stuyven  Trek-Segafredo03h 26' 29"+  00:00:06 =47,655  km/h

7  Edvald Boasson Hagen  Dimension Data03h 26' 29"+  00:00:06 =47,655  km/h

8  André Greipel  Lotto Soudal03h 26' 29"+  00:00:06 =47,655  km/h

9  Sondre Holst Enger  IAM Cycling03h 26' 29"+  00:00:06 =47,655  km/h

10  Oliver Naesen  IAM Cycling03h 26' 29"+  00:00:06 =47,655  km/h

11  Reinardt Janse Van Rensburg  Dimension Data03h 26' 29"+  00:00:06 =47,655  km/h

12  John Degenkolb  Giant-Alpecin03h 26' 29"+  00:00:06 =47,655  km/h

13  Dylan Groenewegen  Lotto NL-Jumbo03h 26' 29"+  00:00:06 =47,655  km/h

14  Daniel McLay  Fortuneo-Vital Concept03h 26' 29"+  00:00:06 =47,655  km/h

15  Adam Yates  ORICA BikeExchange03h 26' 29"+  00:00:06 =47,655  km/h

16  Roman Kreuziger  Tinkoff03h 26' 29"+  00:00:06 =47,655  km/h

17  Nairo Quintana  Movistar03h 26' 29"+  00:00:06 =47,655  km/h

18  Simon Gerrans  ORICA BikeExchange03h 26' 29"+  00:00:06 =47,655  km/h

19  Shane Archbold  Bora-Argon 1803h 26' 29"+  00:00:06 =47,655  km/h

20  Oscar Gatto  Tinkoff03h 26' 29"+  00:00:06 =47,655  km/h

21  Greg Van Avermaet  BMC03h 26' 29"+  00:00:06 =47,655  km/h

22  Fabio Aru  Astana Pro Team03h 26' 29"+  00:00:06 =47,655  km/h

23  Bryan Coquard  Direct Energie03h 26' 29"+  00:00:06 =47,655  km/h

24  Tejay Van Garderen  BMC03h 26' 29"+  00:00:06 =47,655  km/h

25  Marcel Kittel  Etixx-Quick Step03h 26' 29"+  00:00:06 =47,655  km/h

26  Bauke Mollema  Trek-Segafredo03h 26' 29"+  00:00:06 =47,655  km/h

27  Richie Porte  BMC03h 26' 29"+  00:00:06 =47,655  km/h

28  Michael Schär  BMC03h 26' 29"+  00:00:06 =47,655  km/h

29  Romain Bardet  AG2R La Mondiale03h 26' 29"+  00:00:06 =47,655  km/h

30  Sergio Henao  Sky Procycling03h 26' 29"+  00:00:06 =47,655  km/h

31  Geraint Thomas  Sky Procycling03h 26' 29"+  00:00:06 =47,655  km/h

32  Warren Barguil  Giant-Alpecin03h 26' 29"+  00:00:06 =47,655  km/h

33  Jarlinson Pantano  IAM Cycling03h 26' 29"+  00:00:06 =47,655  km/h

34  Vincenzo Nibali  Astana Pro Team03h 26' 29"+  00:00:06 =47,655  km/h

35  Dan Martin  Etixx-Quick Step03h 26' 29"+  00:00:06 =47,655  km/h

36  Alejandro Valverde  Movistar03h 26' 29"+  00:00:06 =47,655  km/h

37  Andriy Grivko  Astana Pro Team03h 26' 29"+  00:00:06 =47,655  km/h

38  Paul Voss  Bora-Argon 1803h 26' 29"+  00:00:06 =47,655  km/h

39  Michael Valgren  Tinkoff03h 26' 29"+  00:00:06 =47,655  km/h

40  Angelo Tulik  Direct Energie03h 26' 37"+  00:00:14 =47,624  km/h

41  Maximiliano Richeze  Etixx-Quick Step03h 26' 39"+  00:00:16 =47,617  km/h

42  Fabio Sabatini  Etixx-Quick Step03h 26' 39"+  00:00:16 =47,617  km/h

43  Wilco Kelderman  Lotto NL-Jumbo03h 26' 43"+  00:00:20 =47,601  km/h

44  Jan Bakelants  AG2R La Mondiale03h 26' 43"+  00:00:20 =47,601  km/h

45  Bartosz Huzarski  Bora-Argon 1803h 26' 43"+  00:00:20 =47,601  km/h

46  Gorka Izagirre  Movistar03h 26' 43"+  00:00:20 =47,601  km/h

47  Robert Kišerlovski  Tinkoff03h 26' 43"+  00:00:20 =47,601  km/h

48  Sylvain Chavanel  Direct Energie03h 26' 43"+  00:00:20 =47,601  km/h

49  Antoine Duchesne  Direct Energie03h 26' 43"+  00:00:20 =47,601  km/h

50  Ramon Sinkeldam  Giant-Alpecin03h 26' 47"+  00:00:24 =47,586  km/h

51  Gregory Rast  Trek-Segafredo03h 26' 50"+  00:00:27 =47,575  km/h

52  Geoffrey Soupe  Cofidis – Solutions Crédits03h 26' 53"+  00:00:30 =47,563  km/h

53  Jürgen Roelandts  Lotto Soudal03h 26' 53"+  00:00:30 =47,563  km/h

54  Tom Dumoulin  Giant-Alpecin03h 26' 53"+  00:00:30 =47,563  km/h

55  Sep Vanmarcke  Lotto NL-Jumbo03h 26' 53"+  00:00:30 =47,563  km/h

56  Maarten Wynants  Lotto NL-Jumbo03h 26' 53"+  00:00:30 =47,563  km/h

57  Georg Preidler  Giant-Alpecin03h 26' 53"+  00:00:30 =47,563  km/h

58  Julien Vermote  Etixx-Quick Step03h 26' 53"+  00:00:30 =47,563  km/h

59  Gregory Henderson  Lotto Soudal03h 26' 53"+  00:00:30 =47,563  km/h

60  Alexey Lutsenko  Astana Pro Team03h 27' 06"+  00:00:43 =47,513  km/h

61  Yohann Gène  Direct Energie03h 27' 06"+  00:00:43 =47,513  km/h

62  Iljo Keisse  Etixx-Quick Step03h 27' 06"+  00:00:43 =47,513  km/h

63  Luke Durbridge  ORICA BikeExchange03h 27' 13"+  00:00:50 =47,487  km/h

64  Petr Vakoč  Etixx-Quick Step03h 27' 23"+  00:01:00 =47,448  km/h

65  Louis Meintjes  Lampre-Merida03h 27' 32"+  00:01:09 =47,414  km/h

66  Markel Irizar  Trek-Segafredo03h 27' 32"+  00:01:09 =47,414  km/h

67  Marcel Sieberg  Lotto Soudal03h 27' 32"+  00:01:09 =47,414  km/h

68  Joaquin Rodriguez  Katusha03h 27' 32"+  00:01:09 =47,414  km/h

69  Sébastien Reichenbach  FDJ03h 27' 32"+  00:01:09 =47,414  km/h

70  Pierre Rolland  Cannondale Pro Cycling03h 27' 32"+  00:01:09 =47,414  km/h

71  Roy Curvers  Giant-Alpecin03h 27' 32"+  00:01:09 =47,414  km/h

72  Imanol Erviti  Movistar03h 27' 32"+  00:01:09 =47,414  km/h

73  Alexis Vuillermoz  AG2R La Mondiale03h 27' 32"+  00:01:09 =47,414  km/h

74  Emanuel Buchmann  Bora-Argon 1803h 27' 32"+  00:01:09 =47,414  km/h

75  Diego Rosa  Astana Pro Team03h 27' 32"+  00:01:09 =47,414  km/h

76  Paul Martens  Lotto NL-Jumbo03h 27' 32"+  00:01:09 =47,414  km/h

77  Jesus Herrada  Movistar03h 27' 32"+  00:01:09 =47,414  km/h

78  Luis Angel Mate  Cofidis – Solutions Crédits03h 27' 32"+  00:01:09 =47,414  km/h

79  Haimar  Zubeldía  Trek-Segafredo03h 27' 32"+  00:01:09 =47,414  km/h

80  Armindo Fonseca  Fortuneo-Vital Concept03h 27' 32"+  00:01:09 =47,414  km/h

81  Eduardo Sepulveda  Fortuneo-Vital Concept03h 27' 32"+  00:01:09 =47,414  km/h

82  Patrick Konrad  Bora-Argon 1803h 27' 32"+  00:01:09 =47,414  km/h

83  Damiano Caruso  BMC03h 27' 32"+  00:01:09 =47,414  km/h

84  Paolo Tiralongo  Astana Pro Team03h 27' 32"+  00:01:09 =47,414  km/h

85  Mikaël Cherel  AG2R La Mondiale03h 27' 32"+  00:01:09 =47,414  km/h

86  Adam Hansen  Lotto Soudal03h 27' 32"+  00:01:09 =47,414  km/h

87  Timo Roosen  Lotto NL-Jumbo03h 27' 32"+  00:01:09 =47,414  km/h

88  Martin Elmiger  IAM Cycling03h 27' 32"+  00:01:09 =47,414  km/h

89  Cyril Gautier  AG2R La Mondiale03h 27' 32"+  00:01:09 =47,414  km/h

90  Daniel Teklehaimanot  Dimension Data03h 27' 32"+  00:01:09 =47,414  km/h

91  Lars Bak  Lotto Soudal03h 27' 32"+  00:01:09 =47,414  km/h

92  Marcus Burghardt  BMC03h 27' 32"+  00:01:09 =47,414  km/h

93  Anthony Roux  FDJ03h 27' 32"+  00:01:09 =47,414  km/h

94  Robert Wagner  Lotto NL-Jumbo03h 27' 39"+  00:01:16 =47,387  km/h

95  Luka Pibernik  Lampre-Merida03h 27' 41"+  00:01:18 =47,380  km/h

96  Tony Martin  Etixx-Quick Step03h 27' 46"+  00:01:23 =47,361  km/h

97  Jacopo Guarnieri  Katusha03h 28' 10"+  00:01:47 =47,270  km/h

98  Marco Haller  Katusha03h 28' 30"+  00:02:07 =47,194  km/h

99  Ramūnas Navardauskas  Cannondale Pro Cycling03h 28' 30"+  00:02:07 =47,194  km/h

100  Bert-Jan Lindeman  Lotto NL-Jumbo03h 28' 38"+  00:02:15 =47,164  km/h

101  Jens Debusschere  Lotto Soudal03h 28' 47"+  00:02:24 =47,130  km/h

102  Julian Alaphilippe  Etixx-Quick Step03h 28' 53"+  00:02:30 =47,108  km/h

103  Stef Clement  IAM Cycling03h 29' 21"+  00:02:58 =47,003  km/h

104  Steve Morabito  FDJ03h 29' 21"+  00:02:58 =47,003  km/h

105  Jérémy Roy  FDJ03h 29' 24"+  00:03:01 =46,991  km/h

106  Matteo Bono  Lampre-Merida03h 29' 24"+  00:03:01 =46,991  km/h

107  Brice Feillu  Fortuneo-Vital Concept03h 29' 24"+  00:03:01 =46,991  km/h

108  Tanel Kangert  Astana Pro Team03h 29' 24"+  00:03:01 =46,991  km/h

109  Fabian Cancellara  Trek-Segafredo03h 30' 00"+  00:03:37 =46,857  km/h

110  Fränk Schleck  Trek-Segafredo03h 30' 05"+  00:03:42 =46,839  km/h

111  Jan Polanc  Lampre-Merida03h 30' 05"+  00:03:42 =46,839  km/h

112  Matteo Tosatto  Tinkoff03h 30' 05"+  00:03:42 =46,839  km/h

113  Mathias Frank  IAM Cycling03h 30' 13"+  00:03:50 =46,809  km/h

114  Adrien Petit  Direct Energie03h 30' 13"+  00:03:50 =46,809  km/h

115  Cyril Lemoine  Cofidis – Solutions Crédits03h 30' 13"+  00:03:50 =46,809  km/h

116  Pierre-Luc Périchon  Fortuneo-Vital Concept03h 30' 13"+  00:03:50 =46,809  km/h

117  Kristijan Ðurasek  Lampre-Merida03h 30' 13"+  00:03:50 =46,809  km/h

118  Vasil Kiryienka  Sky Procycling03h 30' 13"+  00:03:50 =46,809  km/h

119  Ilnur Zakarin  Katusha03h 30' 13"+  00:03:50 =46,809  km/h

120  Tom-Jelte Slagter  Cannondale Pro Cycling03h 30' 13"+  00:03:50 =46,809  km/h

121  Peter Stetina  Trek-Segafredo03h 30' 13"+  00:03:50 =46,809  km/h

122  Nelson Oliveira  Movistar03h 30' 13"+  00:03:50 =46,809  km/h

123  Brent Bookwalter  BMC03h 30' 13"+  00:03:50 =46,809  km/h

124  Amaël Moinard  BMC03h 30' 13"+  00:03:50 =46,809  km/h

125  Florian Vachon  Fortuneo-Vital Concept03h 30' 13"+  00:03:50 =46,809  km/h

126  Thibaut Pinot  FDJ03h 30' 13"+  00:03:50 =46,809  km/h

127  Domenico Pozzovivo  AG2R La Mondiale03h 30' 13"+  00:03:50 =46,809  km/h

128  Anthony Delaplace  Fortuneo-Vital Concept03h 30' 13"+  00:03:50 =46,809  km/h

129  Mikel Landa  Sky Procycling03h 30' 13"+  00:03:50 =46,809  km/h

130  Luis León Sánchez  Astana Pro Team03h 30' 13"+  00:03:50 =46,809  km/h

131  Simon Geschke  Giant-Alpecin03h 30' 13"+  00:03:50 =46,809  km/h

132  Jakob Fuglsang  Astana Pro Team03h 30' 13"+  00:03:50 =46,809  km/h

133  Matti Breschel  Cannondale Pro Cycling03h 30' 13"+  00:03:50 =46,809  km/h

134  Natnael Berhane  Dimension Data03h 30' 13"+  00:03:50 =46,809  km/h

135  Michael Albasini  ORICA BikeExchange03h 30' 13"+  00:03:50 =46,809  km/h

136  Jan Bárta  Bora-Argon 1803h 30' 13"+  00:03:50 =46,809  km/h

137  Jurgen Van Den Broeck  Katusha03h 30' 13"+  00:03:50 =46,809  km/h

138  Mikel Nieve  Sky Procycling03h 30' 13"+  00:03:50 =46,809  km/h

139  Bernhard Eisel  Dimension Data03h 30' 13"+  00:03:50 =46,809  km/h

140  Mark Cavendish  Dimension Data03h 30' 13"+  00:03:50 =46,809  km/h

141  Ion Izagirre  Movistar03h 30' 13"+  00:03:50 =46,809  km/h

142  Kristjan Koren  Cannondale Pro Cycling03h 30' 13"+  00:03:50 =46,809  km/h

143  Cesare Benedetti  Bora-Argon 1803h 30' 13"+  00:03:50 =46,809  km/h

144  Dylan Van Baarle  Cannondale Pro Cycling03h 30' 13"+  00:03:50 =46,809  km/h

145  Romain Sicard  Direct Energie03h 30' 13"+  00:03:50 =46,809  km/h

146  Serge Pauwels  Dimension Data03h 30' 13"+  00:03:50 =46,809  km/h

147  Mathew Hayman  ORICA BikeExchange03h 30' 13"+  00:03:50 =46,809  km/h

148  Christopher Juul Jensen  ORICA BikeExchange03h 30' 13"+  00:03:50 =46,809  km/h

149  Leigh Howard  IAM Cycling03h 32' 02"+  00:05:39 =46,408  km/h

150  Reto Hollenstein  IAM Cycling03h 32' 02"+  00:05:39 =46,408  km/h

151  Tsgabu Grmay  Lampre-Merida03h 32' 02"+  00:05:39 =46,408  km/h

152  Daniel Moreno  Movistar03h 32' 02"+  00:05:39 =46,408  km/h

153  Winner Anacona  Movistar03h 32' 02"+  00:05:39 =46,408  km/h

154  Thomas De Gendt  Lotto Soudal03h 32' 02"+  00:05:39 =46,408  km/h

155  Thomas  Voeckler  Direct Energie03h 32' 02"+  00:05:39 =46,408  km/h

156  Daniel Navarro  Cofidis – Solutions Crédits03h 32' 02"+  00:05:39 =46,408  km/h

157  Alberto Losada  Katusha03h 32' 02"+  00:05:39 =46,408  km/h

158  Davide Cimolai  Lampre-Merida03h 32' 02"+  00:05:39 =46,408  km/h

159  Ángel Vicioso  Katusha03h 32' 02"+  00:05:39 =46,408  km/h

160  Rubén Plaza  ORICA BikeExchange03h 32' 02"+  00:05:39 =46,408  km/h

161  Rafał Majka  Tinkoff03h 32' 02"+  00:05:39 =46,408  km/h

162  Arnold Jeannesson  Cofidis – Solutions Crédits03h 32' 02"+  00:05:39 =46,408  km/h

163  Nicolas Edet  Cofidis – Solutions Crédits03h 32' 02"+  00:05:39 =46,408  km/h

164  Rui Costa  Lampre-Merida03h 32' 02"+  00:05:39 =46,408  km/h

165  Luke Rowe  Sky Procycling03h 32' 02"+  00:05:39 =46,408  km/h

166  Daryl Impey  ORICA BikeExchange03h 32' 02"+  00:05:39 =46,408  km/h

167  Ben Gastauer  AG2R La Mondiale03h 32' 02"+  00:05:39 =46,408  km/h

168  Michael Matthews  ORICA BikeExchange03h 32' 02"+  00:05:39 =46,408  km/h

169  Chris Anker Sørensen  Fortuneo-Vital Concept03h 32' 02"+  00:05:39 =46,408  km/h

170  Rohan Dennis  BMC03h 32' 02"+  00:05:39 =46,408  km/h

171  Jérôme Coppel  IAM Cycling03h 32' 02"+  00:05:39 =46,408  km/h

172  George Bennett  Lotto NL-Jumbo03h 32' 02"+  00:05:39 =46,408  km/h

173  Laurens Ten Dam  Giant-Alpecin03h 32' 02"+  00:05:39 =46,408  km/h

174  Wout Poels  Sky Procycling03h 32' 02"+  00:05:39 =46,408  km/h

175  Alex Howes  Cannondale Pro Cycling03h 32' 02"+  00:05:39 =46,408  km/h

176  Stephen Cummings  Dimension Data03h 32' 02"+  00:05:39 =46,408  km/h

177  Ian Stannard  Sky Procycling03h 32' 02"+  00:05:39 =46,408  km/h

178  Tony Gallopin  Lotto Soudal03h 32' 02"+  00:05:39 =46,408  km/h

179  Yukiya  Arashiro  Lampre-Merida03h 32' 02"+  00:05:39 =46,408  km/h

180  William  Bonnet  FDJ03h 32' 02"+  00:05:39 =46,408  km/h

181  Arthur Vichot  FDJ03h 32' 02"+  00:05:39 =46,408  km/h

182  Vegard Breen  Fortuneo-Vital Concept03h 32' 02"+  00:05:39 =46,408  km/h

183  Jérôme Cousin  Cofidis – Solutions Crédits03h 32' 02"+  00:05:39 =46,408  km/h

184  Fabrice Jeandesboz  Direct Energie03h 32' 02"+  00:05:39 =46,408  km/h

185  Borut Božič  Cofidis – Solutions Crédits03h 32' 02"+  00:05:39 =46,408  km/h

186  Edward Theuns  Trek-Segafredo03h 32' 11"+  00:05:48 =46,375  km/h

187  Andreas Schillinger  Bora-Argon 1803h 32' 22"+  00:05:59 =46,335  km/h

188  Sam Bennett  Bora-Argon 1803h 32' 22"+  00:05:59 =46,335  km/h

189  Alexis Gougeard  AG2R La Mondiale03h 32' 22"+  00:05:59 =46,335  km/h

190  Samuel Dumoulin  AG2R La Mondiale03h 32' 22"+  00:05:59 =46,335  km/h

191  Albert Timmer  Giant-Alpecin03h 32' 22"+  00:05:59 =46,335  km/h

192  Lawson Craddock  Cannondale Pro Cycling03h 43' 24"+  00:17:01 =44,047  km/h


Todays birthdays.

1888 • Giuseppe Contesini
1911 • Edmond Pages
1935 • Eddy Pauwels
1940 • Julien Haelterman
1958 • Luc Colijn
1962 • Jean-François Bernard
1984 • Yann Huguet
1993 • Owain Doull

 

Optimized for Chrome - Edge
and Opera browsers.